Location: Unspecified
(0.0000°N, 0.0000°E)
Time: 00:08:45
(UTC+00:00)

CZ-3B DEB - Pass Details

Date: 15 February 2026
Orbit: 1033 x 41494 km, 26.9° (Epoch: 29 July)

Event Time Altitude Azimuth Distance (km) Brightness Sun altitude
Rises 16:10:21 0° 257° (WSW) 6,650 ? 30.1°
Reaches altitude 10° 16:13:21 10° 250° (WSW) 6,493 ? 29.4°
Maximum altitude 21:39:20 70° 195° (SSW) 42,092 ? -49.7°
Enters shadow 02:53:20 36° 271° (W) 26,206 ? -48.6°
Exits shadow 03:57:12 37° 291° (WNW) 14,067 ? -33.3°
Drops below altitude 10° 04:39:21 10° 36° (NE) 4,963 ? -23.1°
Sets 04:41:56 0° 46° (NE) 5,285 ? -22.5°
